Theta_e
333 333 334 332 330 333 336 336 335 334 332 331 330 330 329 330 330 332 332 336 339 341 341 342 343 342 343 345 347 348 348 346 346 347 345 345 345 344 344 344 344 343 342
332 332 331 329 329 330 332 333 332 331 329 329 329 329 329 330 331 331 334 334 337 340 341 342 343 344 342 343 344 346 348 345 347 346 344 344 344 344 345 344 343 342 342
331 331 330 328 330 330 330 330 329 329 328 328 328 329 329 329 329 330 331 333 332 336 340 341 343 343 343 342 342 344 346 346 345 344 344 343 343 344 345 344 343 342 342
332 329 329 329 330 329 329 328 327 326 326 326 326 327 328 328 329 330 330 331 332 333 336 341 342 343 341 341 341 342 346 345 344 343 343 344 344 343 344 344 342 342 341
333 330 329 330 330 329 328 327 326 327 325 325 325 326 327 327 327 328 329 330 332 334 335 337 340 341 341 340 340 341 345 346 343 343 343 343 343 343 343 343 342 341 341
334 331 330 330 330 328 327 326 326 325 326 325 325 326 326 327 325 326 327 329 330 332 334 334 337 337 340 341 341 342 343 346 344 344 344 342 343 342 342 342 341 341 338
334 332 331 330 330 328 328 327 325 325 324 326 323 323 323 325 323 324 326 328 329 330 331 332 334 334 335 340 342 343 342 345 344 344 342 341 342 342 342 341 340 337 335
334 332 331 330 328 327 327 326 326 323 322 324 321 318 316 320 321 323 325 326 327 329 330 332 333 332 334 337 342 343 343 344 344 344 343 340 341 342 341 340 337 335 334
334 332 330 328 327 327 326 324 324 322 319 323 323 319 312 312 314 320 322 325 326 327 329 329 331 332 333 335 339 343 343 343 344 343 344 340 342 342 340 334 331 330 330
332 331 329 329 328 328 326 325 324 322 321 318 321 321 318 318 315 313 319 321 324 325 326 327 329 332 333 333 334 338 339 340 344 343 343 341 342 341 339 335 335 334 333
330 331 331 330 328 327 326 324 324 321 321 320 319 318 318 318 319 317 311 314 320 323 325 326 329 330 332 333 334 336 336 336 338 340 341 341 341 340 337 334 333 333 333
327 330 330 329 327 326 325 325 325 324 322 321 320 319 318 318 317 317 314 314 317 321 325 327 327 329 332 332 333 333 332 332 331 333 333 337 339 338 335 330 331 333 332
324 325 327 325 325 325 325 325 324 324 323 322 321 320 320 320 319 320 318 316 316 319 321 326 329 330 330 332 334 334 334 329 327 326 327 330 334 334 334 333 333 332 331
325 326 326 325 325 326 325 325 325 325 323 323 322 321 321 321 320 320 316 316 315 317 320 322 330 331 332 332 332 333 334 326 325 323 325 327 329 330 330 330 330 330 330
325 325 325 324 326 326 327 327 326 326 324 323 324 323 322 322 321 321 319 322 320 313 314 321 324 331 333 332 334 332 332 325 325 323 323 324 324 324 325 324 325 325 324
324 324 325 326 327 327 327 327 326 327 324 323 323 323 322 323 322 322 321 321 321 319 315 319 324 329 330 332 333 331 329 326 322 321 322 321 320 320 321 321 320 322 324
324 324 326 327 326 326 326 326 325 326 324 321 322 323 323 324 323 322 322 321 320 321 315 321 325 329 328 327 326 327 328 325 322 321 321 319 317 317 318 319 320 321 322
325 325 327 327 327 326 324 325 324 325 321 321 320 322 322 323 323 324 322 320 320 321 320 318 320 323 323 325 324 323 323 324 322 321 318 316 315 314 315 314 315 315 315
324 325 326 326 326 325 325 326 325 325 322 322 321 321 323 323 322 321 321 320 320 322 323 321 318 321 320 321 319 319 319 319 320 320 317 316 314 314 314 312 311 311 310
323 323 326 326 325 324 323 323 327 326 323 322 322 322 323 323 321 320 321 319 322 322 322 318 317 317 317 318 318 315 314 317 314 315 314 314 314 313 311 311 312 311 307
324 326 325 324 322 321 317 320 325 325 323 322 322 323 324 322 320 321 322 321 322 321 318 316 315 315 314 315 313 314 312 312 312 312 309 309 310 311 313 312 314 311 307
326 325 323 322 320 318 301 309 318 323 324 323 322 322 322 318 315 313 314 315 320 319 317 316 315 314 314 313 314 313 311 311 305 310 307 302 306 305 307 310 307 305 304
326 322 320 320 318 316 301 303 310 325 324 322 321 319 318 316 316 317 310 311 310 310 315 321 317 315 313 315 314 313 314 312 307 308 308 302 303 302 303 304 302 302 301
323 320 319 318 317 313 302 302 310 324 323 322 321 320 319 319 317 319 319 318 319 320 321 322 321 320 319 318 317 315 311 307 309 308 310 303 301 300 300 301 300 300 299
320 318 318 317 318 315 300 302 316 324 322 321 322 321 319 316 303 306 316 314 314 313 307 304 303 302 301 303 309 313 310 310 307 308 307 304 301 300 300 300 300 299 298
320 319 317 317 312 317 299 302 316 323 320 319 318 316 306 311 301 304 316 315 312 313 314 314 312 308 309 307 307 315 313 311 309 308 309 305 300 301 301 301 300 301 300
Wind_Speed
7 5 5 4 5 3 4 4 4 4 4 5 5 6 6 6 6 4 4 10 12 12 12 12 12 11 12 9 9 11 13 19 19 16 16 15 12 11 12 12 13 13 13
7 7 7 6 4 4 3 4 5 4 4 4 5 6 7 6 5 5 4 4 11 11 13 13 14 14 14 10 9 11 13 15 18 17 15 13 12 11 10 10 11 13 14
10 8 7 5 5 5 5 3 3 3 3 4 6 5 5 6 5 5 5 4 5 11 12 14 14 15 14 12 11 11 13 14 17 18 16 14 13 11 10 11 11 11 13
11 10 8 7 6 4 4 3 3 4 4 4 4 5 5 4 5 5 5 4 5 5 7 12 12 12 12 11 10 11 12 13 16 15 15 16 13 11 9 9 10 9 14
13 9 7 5 5 4 4 3 3 2 3 3 4 4 4 5 4 4 6 6 6 4 3 7 11 11 10 10 11 11 12 12 12 15 15 15 14 12 9 8 8 13 20
12 10 7 6 4 4 3 3 4 3 2 2 3 4 4 5 2 5 6 5 5 5 3 4 5 5 10 10 11 12 12 13 13 15 17 16 14 12 9 9 13 19 23
11 10 5 6 6 6 5 4 2 3 3 3 2 3 3 4 4 3 5 4 5 4 4 4 3 3 3 8 9 10 11 11 10 12 13 14 14 13 12 15 18 22 21
10 9 7 7 7 5 5 5 5 3 3 4 2 0 2 1 2 4 4 4 5 2 4 5 5 4 4 4 6 8 9 10 10 12 13 15 14 14 17 22 23 23 18
9 7 8 7 7 5 5 5 6 8 4 3 4 2 1 3 0 1 4 3 4 3 2 3 5 5 5 4 6 7 9 8 10 13 15 15 18 18 22 25 23 22 23
7 6 6 6 6 4 4 4 4 3 3 4 2 4 1 1 2 2 2 1 3 3 4 3 3 5 5 4 7 9 9 9 10 12 16 17 21 20 24 25 23 20 19
5 5 7 6 5 4 3 4 4 5 4 3 3 3 2 1 1 1 2 1 0 0 1 3 2 4 5 5 5 6 10 10 9 12 16 19 21 25 26 24 22 19 19
3 5 5 5 5 4 4 4 5 5 5 4 3 3 3 3 3 2 2 1 1 1 0 0 1 3 4 4 7 8 10 10 9 10 14 21 23 25 25 24 24 22 20
3 4 5 4 3 4 4 5 5 5 5 5 6 4 3 3 2 2 3 2 2 1 1 1 2 2 3 4 4 8 10 11 11 11 13 17 23 23 26 24 22 21 19
4 5 4 4 4 4 4 3 2 3 5 5 6 5 4 4 3 3 4 3 3 2 1 2 1 1 2 2 2 6 7 11 12 15 16 20 22 21 22 21 19 17 16
4 5 5 4 4 4 4 5 4 5 4 4 5 5 5 4 4 4 3 3 4 4 2 1 1 1 2 3 4 5 8 13 17 18 20 22 22 20 19 21 17 15 14
5 5 4 4 3 3 3 3 2 4 4 2 3 6 5 4 5 5 5 3 2 3 4 1 1 2 2 3 8 7 8 15 19 21 24 25 22 21 18 17 17 13 11
6 5 4 4 3 3 1 1 2 2 3 3 3 3 4 4 4 5 4 3 3 2 5 2 1 3 3 8 8 9 9 12 13 25 26 24 21 16 18 16 12 9 10
4 5 4 3 3 1 1 1 2 3 5 2 2 2 3 3 4 5 5 6 4 2 5 8 2 2 4 9 10 12 10 10 13 24 24 21 20 18 16 10 10 8 13
4 4 4 3 2 1 2 2 4 5 6 6 3 3 4 5 4 4 5 5 5 5 7 7 4 3 5 9 11 11 12 12 11 23 21 19 18 14 11 10 11 12 11
5 4 4 3 3 3 3 3 2 3 4 4 4 3 4 5 5 8 7 8 7 8 9 7 8 8 8 6 11 13 11 10 10 9 16 13 13 15 12 10 10 11 11
4 5 6 4 4 4 3 3 4 4 5 5 4 4 4 6 8 7 7 9 10 9 9 8 9 9 10 9 11 11 12 11 8 6 9 7 7 5 6 9 10 12 10
5 6 5 5 4 3 6 4 6 4 4 4 4 4 5 8 8 10 10 9 10 13 13 9 9 10 10 12 10 12 13 11 6 4 6 5 2 5 3 3 6 11 10
6 6 5 5 4 3 3 7 8 3 4 5 5 5 5 5 8 8 11 12 12 11 9 13 15 12 14 14 13 12 12 6 6 4 6 5 2 3 3 4 7 9 9
6 5 4 4 4 3 3 8 8 5 5 6 6 7 8 7 8 10 10 10 10 10 9 8 11 13 13 12 12 13 11 11 10 6 3 4 1 1 2 3 5 7 8
4 3 3 5 5 4 3 7 7 6 6 7 7 8 9 10 11 13 12 12 12 10 14 16 18 17 17 15 11 13 11 12 9 3 2 4 3 3 2 3 3 5 6
4 4 4 4 5 5 3 6 6 5 6 6 8 9 10 10 12 12 13 13 13 11 14 16 15 15 15 12 10 6 10 11 8 5 4 3 4 3 3 2 4 4 4
Wind_Direction
180 179 187 188 203 181 202 200 213 212 214 214 222 223 231 236 246 244 256 252 259 240 242 240 243 224 212 214 195 207 206 191 201 191 193 189 180 187 180 181 177 174 155
174 181 200 199 194 193 189 205 205 211 215 210 235 225 236 231 242 246 253 258 270 264 245 241 235 223 219 215 206 201 211 197 185 183 183 182 174 182 180 170 170 167 153
177 193 200 195 198 199 190 198 207 197 219 223 240 240 233 231 235 247 250 251 262 262 264 249 232 214 215 214 205 203 210 205 198 190 180 179 179 176 172 167 171 169 156
173 192 194 193 204 186 162 173 188 210 220 213 230 238 238 229 231 240 253 246 247 255 270 242 208 203 214 214 219 211 203 212 214 198 182 179 174 171 174 179 177 167 146
191 181 193 189 148 160 193 191 187 201 195 221 236 240 241 243 229 240 241 236 242 240 256 262 200 197 206 215 219 216 206 211 216 199 197 186 168 172 170 172 175 149 136
180 181 182 173 168 159 176 163 188 192 201 233 249 260 240 239 215 245 227 231 240 238 221 230 223 208 211 219 231 216 214 208 212 202 192 175 163 166 155 140 137 142 129
170 173 178 158 157 177 185 158 139 205 234 203 268 275 247 230 216 197 246 217 230 231 212 196 215 215 225 215 212 211 213 206 209 194 182 161 156 147 137 133 130 117 121
165 173 175 168 158 152 158 162 175 205 227 202 186 174 299 278 216 215 216 209 223 217 217 209 192 209 215 207 201 195 208 202 203 185 169 159 155 157 147 130 121 118 112
170 166 159 151 158 168 186 180 188 204 217 187 203 167 162 229 73 74 219 212 207 204 218 216 199 199 210 203 202 195 191 194 205 189 164 168 157 148 142 131 132 137 156
157 140 144 157 166 157 177 192 174 175 155 184 186 216 246 161 172 125 45 11 219 199 198 231 193 186 198 200 213 195 191 186 190 174 171 171 150 148 142 140 141 142 145
131 147 152 157 152 161 167 176 158 187 186 172 174 153 202 272 97 106 82 355 56 205 210 229 208 187 196 189 199 208 188 179 181 166 179 162 148 143 138 139 139 145 144
140 139 136 149 147 154 176 184 191 185 185 191 178 186 169 176 185 150 133 147 143 103 156 49 201 185 187 186 191 193 182 171 164 165 163 155 145 142 137 141 155 144 142
138 155 142 155 154 179 186 187 186 196 186 190 191 200 195 187 149 151 133 120 128 110 105 104 140 148 166 177 192 194 179 161 156 153 152 142 140 143 143 147 145 142 143
145 154 150 165 179 186 198 195 207 207 202 195 198 195 195 199 178 163 153 146 115 119 77 115 97 103 151 167 182 175 146 143 145 138 133 132 129 135 134 136 131 129 132
136 137 150 150 176 189 196 199 208 220 214 191 203 200 201 200 192 180 174 167 143 145 147 150 140 69 110 160 146 134 136 132 131 127 124 122 124 123 118 117 119 111 116
122 131 134 162 165 175 203 189 218 229 214 196 202 206 201 198 195 188 184 177 166 136 134 145 114 92 119 122 118 111 120 120 117 122 124 123 118 116 117 117 122 139 141
134 140 156 158 167 168 133 189 232 231 190 179 204 208 186 180 187 179 162 153 158 138 120 106 100 115 103 111 97 108 110 107 108 121 111 111 109 113 114 115 125 137 132
135 150 143 155 151 158 27 255 231 189 145 230 265 182 152 149 176 174 165 160 154 173 122 124 97 91 102 116 111 107 106 105 114 114 110 111 115 110 111 112 121 117 110
149 140 141 149 147 77 336 296 230 193 179 165 191 205 185 174 148 138 134 131 131 119 119 126 105 90 81 108 104 99 102 98 102 103 96 106 113 118 122 116 109 125 127
153 139 149 125 94 60 17 341 274 195 161 140 154 173 169 165 152 142 133 137 138 128 114 112 113 114 113 108 114 116 104 108 101 82 74 87 94 80 88 110 116 111 118
171 136 118 97 71 43 20 354 85 95 123 140 154 160 142 140 129 133 141 145 145 127 130 132 128 127 124 129 119 119 108 107 84 96 87 59 79 81 84 93 120 139 133
135 126 107 100 72 43 343 125 101 93 108 112 109 96 128 130 118 122 124 134 142 145 139 134 130 131 128 121 129 130 126 127 114 38 91 70 52 89 83 103 109 110 124
121 110 111 108 83 56 41 102 93 71 82 86 95 99 94 101 115 114 98 100 85 83 122 144 136 141 133 140 136 131 125 117 108 115 105 86 37 93 41 76 106 124 128
119 128 128 112 95 52 103 109 96 78 85 82 84 98 106 110 112 111 105 106 106 111 116 126 124 130 126 132 132 124 117 112 97 96 117 114 146 117 100 96 131 149 155
116 133 132 118 97 85 111 112 98 84 84 82 81 87 95 100 101 108 109 106 96 86 72 86 89 93 97 98 119 121 128 123 119 131 86 120 168 130 155 172 163 155 158
132 124 112 100 107 114 143 123 106 103 94 88 87 96 88 108 99 106 116 117 112 118 114 107 102 94 104 100 91 107 143 140 130 143 177 125 148 159 165 165 185 181 182